Regional Weather Roundup
Issued by NWS

Home | Current Version | Previous Version | Graphics & Text | Print | Product List | Glossary On
Versions: 1 2 3 4 5 6 7 8 9 10 11 12 13 14 15 16 17 18 19 20 21 22 23 24 25 26 27 28 29 30 31 32 33 34 35 36 37 38 39 40 41 42 43 44 45 46 47 48 49 50
000
ASUS43 KLOT 251306
RWRIL

ILLINOIS REGIONAL WEATHER ROUNDUP
NATIONAL WEATHER SERVICE CHICAGO/ROMEOVILLE IL
800 AM CDT SAT OCT 25 2014

NOTE: "FAIR" INDICATES FEW OR NO CLOUDS BELOW 12,000 FEET WITH NO
SIGNIFICANT WEATHER AND/OR OBSTRUCTIONS TO VISIBILITY.

* THESE STATIONS ARE NOT UNDER NWS QUALITY CONTROL. THEY ALSO MAY NOT
  REPORT WEATHER SUCH AS PRECIPITATION OR FOG.

ILZ001-002-007-009-015-016-024-251400-
NORTHWEST ILLINOIS

CITY           SKY/WX    TMP DP  RH WIND       PRES   REMARKS
MOLINE         FOG       51  50  96 W5        29.99R VSB 1
STERLING*      CLOUDY    55  54  94 W9        29.97R VSB 1/4
SAVANNA*       CLEAR     55  53  94 W5        29.97R FOG
$$

ILZ003-004-008-010-011-017-018-251400-
NORTH CENTRAL ILLINOIS

CITY           SKY/WX    TMP DP  RH WIND       PRES   REMARKS
ROCKFORD       FOG       53  52  96 W3        29.96R VSB 1/8
FREEPORT*      FOG       50  50  99 W6        29.97R VSB<1/4
ROCHELLE*      FOG       54  54 100 W5        29.95R VSB<1/4
DE KALB*       FOG       54  53  97 W9        29.94R VSB 1
PERU*          CLOUDY    57  56  97 NW8       29.97R FOG
$$

ILZ005-006-012>014-019>023-251400-
NORTHEAST ILLINOIS

CITY           SKY/WX    TMP DP  RH WIND       PRES   REMARKS
CHICAGO-OHARE  PTCLDY    55  53  93 W6        29.91R FOG
CHICAGO-MIDWAY PTCLDY    56  54  93 SW6       29.91S FOG
AURORA         CLEAR     49  48  97 W7        29.93S FOG
LANSING*       CLOUDY    55  54  94 W7        29.93S FOG
JOLIET*        MOCLDY    56  54  94 SW3       29.94S FOG
WAUKEGAN       CLEAR     55  53  93 W7        29.89R FOG
DUPAGE AIRPORT CLEAR     53  52  96 SW3       29.92S FOG
KANKAKEE*      CLOUDY    55  55  98 W8        29.96R FOG
WHEELING       CLEAR     57  53  86 NW3       29.92S FOG
MORRIS*        CLOUDY    57  56  99 W5        29.94R FOG
ROMEOVILLE*    PTCLDY    55  55 100 W5        29.93S FOG
NORTHERLY ISL    N/A     57  53  86 W10         N/A
$$

LMZ740>746-251400-
SOUTHERN LAKE MICHIGAN

STATION/POSITION SKY/WX   TEMP    WIND        PRES    VSBY  WAVE
                          AIR SEA DIR/SP/G                  HT/PER
                          (F)     (DEG/KT/KT) (MB)    (MI)  (FT/S)
SOUTHERN BUOY              55 54  250/ 12/ 16 1011.5R         2/ 3
WAUKEGAN HARBOR            57     280/ 14/ 20   N/A
HARRISON CRIB              57     270/ 11/ 12   N/A
BURNHAM HARBOR             57     260/  8/ 11   N/A
CALUMET HARBOR             56     230/  4/  8 1011.9R
MICHIGAN CITY              56     240/ 13/ 15   N/A
$$

ILZ025>027-034>036-040-047-049-050-058-095>099-251400-
WEST-CENTRAL ILLINOIS

CITY           SKY/WX    TMP DP  RH WIND       PRES   REMARKS
QUINCY         FOG       52  51  97 SW6       30.01S VSB<1/4
GALESBURG*     FOG       48  48  99 W3        29.99R VSB<1/4
MACOMB*        FOG       51  51 100 W5        30.02R VSB<1/4
PITTSFIELD*    FOG       57  56  94 W6        30.03R VSB 1/4
$$

ILZ028>032-037-038-041>044-048-051>054-059>061-251400-
CENTRAL ILLINOIS

CITY           SKY/WX    TMP DP  RH WIND       PRES   REMARKS
PONTIAC        FOG       56  56 100 CALM      29.97S VSB 1/4
BLOOMINGTON    FOG       54  54 100 SW5       29.99S VSB 1/8
DECATUR        CLEAR     56  55  97 W7        30.01R FOG
PEORIA         FOG       56  53  90 SW6       29.99R VSB 1/8
LACON*         FOG       54  53  97 CALM      29.97R VSB<1/4
LINCOLN*       CLOUDY    58  56  92 CALM      29.98S FOG
SPRINGFIELD    CLOUDY    59  56  89 CALM      30.01R FOG
TAYLORVILLE    CLOUDY    57  55  94 W3        30.01R
$$

ILZ033-039-045-046-055>057-062-063-251400-
EAST-CENTRAL ILLINOIS

CITY           SKY/WX    TMP DP  RH WIND       PRES   REMARKS
CHAMPAIGN      CLEAR     51  50  96 W5        29.99S FOG
DANVILLE*      CLEAR     54  51  92 W5        29.95R FOG
RANTOUL*       CLEAR     52  50  94 W5        29.98R FOG
MATTOON        CLEAR     55  53  93 W6        29.99R
PARIS*         CLEAR     54  53  97 W3        29.99S FOG
$$

ILZ079-100>102-251400-
SOUTHWEST ILLINOIS

CITY           SKY/WX    TMP DP  RH WIND       PRES   REMARKS
ALTON          CLEAR     54  52  94 W6        30.03R FOG
BELLEVILLE     CLEAR     51  51 100 CALM      30.03R
CAHOKIA*       CLEAR     54  53  97 CALM      30.03R FOG
SPARTA*        MOCLDY    58  56  93 CALM      30.04R
$$

ILZ064>066-069>071-074>076-080>082-084>086-088>090-092>094-251400-
SOUTH-CENTRAL ILLINOIS

CITY           SKY/WX    TMP DP  RH WIND       PRES   REMARKS
CARBONDALE     PTCLDY    57  55  93 CALM      30.03S
CAIRO*         PTCLDY    58  55  88 CALM      30.05S FOG
EFFINGHAM*     CLEAR     54  51  90 CALM      30.01R FOG
MARION         PTCLDY    57  55  94 S5        30.03F
MT. VERNON       N/A     52  48  87 CALM      30.02F VSB 1/4
CENTRALIA*     FOG       54  52  90 CALM      30.02S VSB 3/4
SALEM*         CLEAR     55  54  97 CALM      30.02S FOG
METROPOLIS*    CLOUDY    54  54 100 CALM      30.04S FOG
$$

ILZ067-068-072-073-078-083-087-091-251400-
SOUTHEAST ILLINOIS

CITY           SKY/WX    TMP DP  RH WIND       PRES   REMARKS
LAWRENCEVILLE  CLEAR     54  52  93 SW5       30.01R FOG
FLORA*         CLEAR     53  52  97 CALM      30.02R FOG
FAIRFIELD*     CLEAR     55  54  96 CALM      30.01S FOG
HARRISBURG*    CLEAR     54  54 100 CALM      30.04S FOG
ROBINSON*      CLEAR     58  56  93 W6        30.01S
CARMI*         PTCLDY    55  55  99 CALM      30.02R
$$

ABBREVIATIONS USED IN REMARKS
   TC - TEMPERATURE IN CELSIUS
  WCI - WIND CHILL INDEX
   HX - HEAT INDEX
  VSB - VISIBILITY
$$




USA.gov is the U.S. government's official web portal to all federal, state and local government web resources and services.